Wind_Speed
13 13 13 12 13 13 11 10 11 11 11 10 9 9 9 8 8 9 9 9 10 10 10 10 10 10 10 10 10 10 10 9 9 8 8 8 8 7 7 6 6 5 5 4 4 4 5 7 8
11 12 11 11 12 10 10 9 9 10 10 9 9 8 8 8 8 7 7 7 8 8 8 8 8 8 8 8 8 9 9 9 8 8 8 8 7 7 6 5 5 4 4 3 3 3 4 5 7
9 10 10 10 10 8 8 8 8 8 9 8 8 7 6 6 6 5 5 5 5 6 6 6 6 6 6 6 6 7 7 7 7 7 7 7 6 6 6 5 5 4 4 3 3 3 3 4 5
7 8 8 8 7 7 6 7 6 7 7 7 7 5 5 4 4 3 3 3 2 3 3 3 4 4 4 4 4 4 5 5 5 6 6 5 5 5 5 5 4 4 4 3 3 2 3 3 4
5 6 6 5 5 5 5 5 5 5 6 6 5 4 3 3 2 1 1 1 2 2 2 2 2 2 3 3 3 3 3 3 3 4 4 4 4 4 4 4 4 4 3 3 3 3 3 3 4
3 3 3 2 2 3 4 4 4 4 5 5 4 3 3 2 1 1 2 3 4 5 5 5 5 5 5 5 5 4 4 4 3 3 3 3 3 3 3 3 3 3 3 3 3 3 3 3 3
1 1 1 1 2 3 4 5 5 5 5 5 5 5 5 4 4 4 5 6 7 7 8 8 8 8 8 8 8 7 7 6 6 5 5 4 4 3 3 3 3 3 3 3 3 3 3 3 4
3 3 3 3 4 4 5 5 6 7 7 7 7 7 7 7 7 7 7 8 9 10 11 11 11 12 12 12 12 11 11 10 9 9 8 7 7 6 5 5 4 4 4 4 4 4 3 3 4
5 5 5 6 6 6 6 7 8 9 9 10 10 11 11 11 11 11 11 11 11 12 13 14 15 15 16 16 15 15 14 13 13 12 11 11 10 9 8 8 7 6 6 6 5 5 4 4 4
7 7 7 7 8 8 8 10 11 12 12 12 13 14 14 14 14 14 15 15 16 16 17 18 18 19 19 19 19 19 18 17 16 16 15 14 13 12 12 11 10 9 8 8 7 7 6 5 5
9 9 9 10 10 11 12 13 14 15 15 15 16 16 16 17 17 18 18 19 19 20 21 22 22 23 22 22 21 22 21 21 20 20 19 18 17 16 15 14 13 12 11 10 10 9 8 7 7
11 11 11 12 13 14 15 16 17 17 17 18 19 19 20 21 21 22 22 23 23 24 25 25 26 27 27 27 26 25 25 24 24 24 23 22 21 20 19 17 16 15 14 13 12 11 11 10 9
12 12 13 14 15 16 17 18 20 20 21 22 22 23 23 24 25 26 27 27 28 29 30 31 31 31 32 31 31 30 29 28 27 28 27 26 25 23 22 20 19 18 17 16 15 14 13 13 12
12 14 15 16 17 18 20 21 22 23 24 25 26 26 26 27 28 29 30 30 31 32 33 34 35 35 35 35 35 35 34 33 31 30 29 29 29 27 25 24 22 21 20 19 18 17 16 15 15
14 15 17 18 19 20 22 23 24 25 26 27 28 29 29 29 30 31 32 33 34 35 35 37 38 38 39 39 38 38 38 38 37 35 34 33 33 32 30 27 26 24 23 21 21 20 19 18 17
16 17 19 19 21 22 24 24 25 26 27 28 29 30 31 31 32 33 34 35 36 37 38 39 39 40 41 41 41 41 41 40 40 40 38 36 36 35 34 33 31 28 26 24 23 22 21 20 19
16 18 20 21 22 24 25 26 26 27 28 29 30 30 31 32 33 34 34 35 36 37 38 39 40 41 41 41 41 42 43 43 42 41 41 39 38 38 37 36 35 32 30 28 26 24 23 22 21
18 19 21 22 24 25 26 27 27 28 29 29 30 31 32 33 34 35 35 36 36 36 37 39 40 41 41 42 42 42 43 43 44 44 43 42 42 41 39 37 35 35 33 31 29 27 26 24 23
18 19 21 23 24 25 26 27 28 28 29 30 31 32 33 34 35 35 35 36 36 37 38 38 39 40 41 41 42 43 43 44 44 44 44 45 43 42 40 38 36 35 34 33 32 30 28 27 25
17 20 21 22 23 25 26 27 28 29 31 32 32 33 33 34 34 35 36 35 35 36 36 37 37 37 37 38 40 42 43 45 45 44 43 44 44 44 43 42 39 38 36 35 34 32 30 29 27
17 19 20 22 23 24 27 28 29 30 31 31 32 32 32 32 32 33 33 33 33 33 33 33 34 34 34 35 36 38 40 42 44 44 44 44 44 45 44 42 40 39 38 37 35 33 30 29 29
16 17 19 21 23 25 26 29 28 29 30 30 31 30 30 30 30 30 30 30 30 30 30 30 31 31 31 32 33 34 35 37 40 41 43 43 43 44 45 43 41 40 39 37 35 34 33 31 29
15 17 19 21 22 24 25 26 27 27 28 28 28 28 28 28 28 28 28 27 27 27 26 26 26 27 28 29 29 30 31 32 35 37 39 40 41 42 43 43 41 41 39 37 35 34 33 31 30
14 17 18 20 21 22 23 24 26 25 25 25 26 26 25 25 25 25 25 24 24 23 23 23 23 23 24 24 24 25 26 27 29 32 34 36 38 40 41 40 40 40 39 38 36 35 33 32 32
14 17 19 21 22 23 23 24 24 24 24 24 23 23 22 21 21 22 21 21 20 20 19 20 20 20 20 19 20 21 22 23 24 27 29 31 33 35 37 38 38 38 37 36 36 36 34 34 34
14 16 18 20 21 22 23 23 23 23 23 22 21 20 20 20 20 19 19 18 18 18 17 17 17 17 16 15 16 16 16 17 19 22 24 26 28 30 32 34 35 34 35 35 34 34 34 34 34
15 16 17 18 19 21 22 22 22 22 22 21 20 20 19 19 19 19 19 19 19 17 16 15 15 14 13 13 13 12 11 12 14 16 18 20 23 26 28 30 31 33 34 34 34 33 34 34 33
14 16 17 18 20 21 21 21 22 22 21 20 20 20 19 18 19 19 19 19 18 18 16 15 15 12 11 11 10 10 9 9 9 11 13 16 18 21 24 26 28 30 31 32 31 31 32 32 33
14 15 17 17 18 19 20 21 20 20 20 20 20 20 20 19 20 20 20 19 18 18 17 16 15 13 12 11 10 9 8 7 7 7 8 11 14 17 20 22 25 27 29 30 30 30 31 31 31
14 15 16 17 18 19 19 19 20 20 19 19 19 20 20 21 21 21 20 20 20 19 18 18 16 14 13 12 11 10 8 6 5 5 5 6 7 11 14 17 20 23 26 28 29 30 30 31 31
Wind_Direction
72 69 66 62 59 54 57 63 69 72 75 78 84 89 95 98 101 103 102 101 99 99 98 97 96 96 96 96 97 98 99 100 103 106 110 112 115 121 129 139 144 152 160 170 183 201 213 216 221
72 70 66 62 57 50 54 58 65 69 72 76 81 88 95 101 103 106 107 106 105 104 103 103 103 101 101 101 100 99 100 101 102 102 105 108 111 115 121 129 136 144 152 162 174 194 210 215 222
72 68 64 64 55 52 53 55 57 65 69 73 76 84 93 100 103 109 115 117 115 112 110 110 112 113 111 110 109 106 105 104 104 105 105 107 110 113 117 122 130 139 148 158 171 188 207 216 223
71 67 64 63 54 47 48 49 51 60 64 66 68 77 87 95 102 112 125 138 145 140 133 128 129 132 133 134 132 126 120 116 115 114 113 113 114 116 117 119 126 133 142 157 170 183 204 216 221
68 64 64 62 51 38 30 34 39 46 51 53 53 53 65 79 89 113 174 203 215 215 206 201 198 199 192 185 181 175 164 151 143 138 132 125 125 127 127 126 128 134 140 153 171 188 198 207 215
63 58 62 62 39 18 8 11 11 13 20 20 16 9 360 357 339 290 269 259 254 251 248 246 246 246 244 237 232 229 222 213 202 191 182 173 161 152 148 148 147 148 153 158 166 185 197 204 211
2 21 323 294 313 327 343 347 349 344 343 345 342 330 324 314 303 291 282 274 268 262 258 256 255 256 256 254 251 248 246 242 237 232 228 223 217 208 195 185 177 174 175 177 181 186 195 202 206
277 285 286 285 298 304 313 324 328 327 323 320 318 311 302 299 294 287 281 277 273 268 264 262 261 260 258 258 258 255 253 251 248 245 242 240 237 233 228 222 215 207 203 200 200 201 202 203 202
272 282 285 288 286 290 297 307 311 313 312 309 306 301 296 293 289 283 280 279 276 272 269 265 263 261 258 257 256 256 254 253 252 250 248 247 245 243 241 237 233 227 223 220 218 216 213 208 205
274 282 288 290 288 288 293 300 303 304 304 302 299 295 292 290 287 284 280 277 276 273 270 267 264 262 261 259 257 254 253 253 253 252 251 250 250 248 246 243 240 236 232 230 228 225 222 218 214
277 284 289 292 292 292 295 298 299 301 301 300 298 294 291 287 283 280 278 276 274 273 270 267 265 263 260 259 259 256 254 252 252 252 252 251 250 250 248 246 244 240 236 234 233 232 229 226 222
280 286 291 293 294 296 297 298 299 299 298 297 294 290 289 285 281 278 276 274 271 270 269 269 268 266 261 258 258 257 256 254 252 251 252 251 251 251 250 247 246 242 237 236 235 234 232 230 228
283 288 291 294 296 297 296 297 297 297 295 293 290 287 285 284 282 279 276 274 272 270 269 268 268 267 265 263 261 260 259 257 254 253 252 251 251 251 250 248 248 245 242 238 237 237 235 234 232
286 290 294 296 296 295 294 295 295 295 294 292 290 287 283 281 279 278 277 275 273 271 269 268 267 266 265 264 263 262 260 258 258 255 252 251 250 250 250 247 247 245 244 242 240 238 237 237 236
288 292 294 296 295 295 295 295 295 295 294 292 290 288 286 284 281 279 277 274 274 272 271 270 269 267 267 265 263 262 260 258 257 255 254 252 250 248 248 246 246 245 243 242 242 240 239 238 238
290 293 295 297 298 298 298 298 296 295 294 292 291 289 287 285 283 282 280 277 275 274 272 270 269 269 268 267 265 263 261 259 257 255 254 253 251 248 246 246 245 244 243 243 242 241 241 239 239
291 295 297 299 300 300 299 299 298 296 294 293 291 290 288 287 285 284 283 281 279 276 274 272 270 269 268 267 265 264 262 261 260 257 255 253 251 249 248 248 246 244 243 242 241 240 240 239 239
294 297 299 301 302 301 301 301 300 299 297 295 293 292 290 289 287 286 285 284 283 280 278 275 272 271 270 267 266 265 263 262 260 259 257 254 253 250 249 249 247 245 243 241 241 239 239 239 239
294 298 301 303 304 303 303 302 302 301 299 297 295 294 293 292 290 289 288 287 286 284 280 278 277 274 271 269 267 265 264 262 261 260 258 257 255 253 250 249 246 245 244 242 241 239 238 237 237
296 300 302 304 305 305 305 304 303 302 300 299 298 296 295 294 293 292 290 289 289 287 283 280 278 275 274 271 269 266 264 263 262 260 257 254 254 253 251 251 249 245 245 243 241 238 236 236 236
300 303 306 307 308 308 307 306 306 305 303 302 301 299 298 298 296 295 294 292 291 290 288 284 279 276 274 272 271 268 265 263 261 259 257 254 252 251 249 249 248 245 244 241 238 235 234 236 234
304 308 311 312 313 313 313 311 312 311 309 308 307 305 304 303 301 299 298 297 295 294 292 289 284 280 277 276 274 270 266 263 260 259 258 255 251 250 249 247 248 245 243 242 239 236 235 235 235
310 315 316 317 317 318 319 317 319 318 316 316 314 313 311 309 307 305 304 302 301 299 297 294 290 286 282 280 277 270 267 264 259 256 254 252 250 249 249 247 247 247 245 245 242 240 238 237 235
318 321 323 325 326 326 327 326 326 326 324 322 320 318 317 315 315 313 311 309 307 306 303 301 298 292 288 285 280 274 271 266 260 255 251 249 248 247 247 247 246 246 246 246 243 240 239 236 235
327 331 333 334 335 334 333 332 332 332 330 328 327 327 326 326 326 327 325 323 319 315 311 307 305 301 295 291 289 283 277 269 260 255 250 247 246 246 244 244 244 244 243 242 241 240 238 237 237
336 338 339 339 338 338 339 339 338 339 339 339 338 338 336 338 340 340 340 337 332 327 322 318 315 311 305 301 301 296 286 272 262 254 249 245 244 243 242 241 239 238 238 239 238 237 238 238 239
343 344 345 346 346 346 347 346 346 347 349 349 348 348 349 348 349 349 348 347 345 341 336 332 327 322 318 312 310 306 297 282 270 259 248 243 240 238 238 237 235 234 235 236 237 237 236 237 237
352 354 354 355 355 355 355 355 356 357 357 358 358 359 358 359 359 357 355 353 353 351 350 347 345 341 335 328 323 318 310 299 283 266 253 244 237 234 234 235 234 233 233 233 234 236 236 237 239
2 3 4 5 6 4 2 3 4 5 6 6 6 7 7 7 6 5 5 5 4 2 0 1 1 0 359 355 347 339 328 308 293 279 262 249 239 236 235 234 233 232 231 232 233 235 235 236 237
11 13 14 15 15 14 13 13 14 14 14 14 15 14 13 13 12 12 13 12 11 10 9 10 10 12 12 10 8 2 351 333 308 283 275 259 240 235 234 234 233 232 232 233 234 235 237 237 237
Height
5936 5935 5935 5936 5936 5936 5935 5934 5933 5932 5931 5930 5929 5928 5928 5928 5929 5930 5927 5925 5925 5924 5924 5923 5923 5923 5922 5922 5922 5921 5920 5920 5919 5919 5918 5918 5917 5917 5917 5917 5917 5917 5917 5917 5917 5917 5917 5918 5918
5937 5937 5938 5938 5937 5937 5936 5935 5934 5933 5932 5931 5930 5929 5929 5928 5928 5928 5927 5926 5926 5925 5925 5924 5924 5924 5923 5923 5922 5922 5921 5920 5920 5919 5919 5918 5918 5917 5917 5917 5917 5916 5916 5916 5916 5916 5916 5917 5917
5939 5938 5939 5939 5938 5938 5937 5936 5934 5933 5932 5931 5931 5930 5930 5929 5928 5928 5927 5927 5926 5925 5925 5924 5924 5924 5924 5923 5923 5922 5922 5921 5920 5919 5919 5918 5918 5917 5917 5917 5916 5916 5916 5916 5916 5916 5916 5916 5916
5940 5940 5941 5940 5939 5939 5938 5936 5935 5934 5933 5932 5932 5931 5930 5929 5929 5928 5927 5927 5926 5926 5925 5924 5924 5924 5923 5923 5923 5922 5922 5921 5920 5920 5919 5918 5918 5917 5917 5917 5916 5916 5916 5915 5915 5915 5915 5915 5915
5941 5941 5941 5940 5939 5939 5938 5937 5936 5935 5934 5933 5932 5931 5930 5929 5928 5928 5927 5926 5926 5925 5925 5924 5924 5923 5923 5923 5922 5922 5921 5921 5920 5919 5919 5918 5918 5917 5917 5916 5916 5916 5915 5915 5915 5915 5914 5915 5915
5942 5941 5942 5940 5940 5939 5938 5937 5936 5935 5934 5933 5933 5932 5930 5929 5928 5928 5927 5926 5925 5924 5924 5923 5923 5922 5922 5922 5921 5921 5920 5920 5919 5919 5918 5918 5917 5917 5916 5916 5916 5915 5915 5915 5914 5914 5914 5914 5914
5942 5941 5941 5940 5940 5939 5938 5937 5936 5935 5934 5933 5933 5932 5930 5929 5928 5927 5926 5925 5924 5923 5922 5922 5921 5921 5921 5920 5920 5919 5919 5918 5918 5917 5917 5917 5916 5916 5916 5915 5915 5915 5915 5914 5914 5914 5914 5913 5913
5941 5942 5940 5940 5939 5939 5938 5936 5935 5934 5933 5933 5932 5931 5929 5928 5927 5925 5924 5924 5923 5922 5921 5920 5919 5919 5919 5918 5918 5917 5917 5916 5916 5916 5915 5915 5915 5914 5914 5914 5914 5914 5914 5913 5913 5913 5913 5913 5913
5940 5941 5940 5939 5938 5937 5936 5935 5934 5933 5932 5931 5930 5929 5927 5926 5925 5924 5922 5921 5920 5920 5919 5918 5917 5916 5915 5915 5915 5914 5914 5914 5913 5913 5913 5912 5912 5912 5912 5912 5912 5912 5912 5912 5912 5912 5912 5912 5912
5939 5939 5939 5938 5937 5936 5935 5934 5932 5931 5930 5929 5928 5926 5925 5924 5922 5921 5920 5919 5918 5917 5915 5914 5913 5913 5912 5911 5911 5911 5910 5910 5910 5910 5910 5909 5910 5910 5910 5910 5910 5910 5910 5910 5910 5910 5910 5911 5911
5937 5937 5937 5936 5935 5934 5932 5931 5930 5928 5927 5926 5925 5923 5922 5920 5919 5918 5916 5915 5913 5912 5911 5910 5909 5908 5908 5907 5906 5906 5906 5906 5906 5905 5906 5906 5906 5906 5906 5907 5907 5907 5907 5908 5908 5908 5909 5909 5909
5936 5935 5934 5934 5932 5931 5930 5928 5927 5925 5924 5922 5921 5919 5918 5916 5914 5913 5911 5910 5909 5907 5906 5905 5904 5903 5902 5901 5901 5901 5900 5901 5901 5901 5901 5901 5902 5902 5903 5903 5903 5903 5904 5904 5905 5906 5906 5907 5907
5934 5933 5932 5931 5930 5928 5927 5925 5924 5922 5920 5918 5917 5915 5913 5911 5909 5907 5906 5904 5903 5901 5900 5899 5898 5897 5896 5895 5895 5895 5895 5895 5895 5896 5896 5896 5897 5898 5898 5899 5899 5900 5900 5901 5902 5902 5903 5904 5904
5932 5931 5929 5928 5927 5925 5923 5922 5920 5917 5915 5913 5911 5909 5907 5905 5903 5901 5899 5897 5895 5894 5893 5891 5890 5889 5888 5888 5888 5887 5888 5888 5888 5889 5889 5890 5891 5892 5893 5894 5895 5895 5896 5897 5898 5898 5899 5900 5901
5929 5929 5927 5925 5923 5922 5920 5918 5915 5912 5910 5907 5905 5902 5900 5898 5896 5894 5891 5889 5887 5886 5884 5883 5882 5881 5880 5880 5880 5879 5879 5880 5881 5881 5882 5883 5884 5885 5887 5888 5889 5890 5891 5892 5893 5894 5895 5896 5897
5927 5926 5924 5922 5920 5917 5917 5913 5910 5907 5904 5901 5898 5896 5893 5890 5888 5885 5883 5881 5879 5877 5875 5874 5873 5872 5871 5870 5870 5870 5870 5871 5872 5872 5873 5874 5876 5877 5879 5881 5882 5884 5885 5886 5888 5889 5890 5892 5893
5924 5923 5920 5918 5916 5913 5911 5907 5905 5901 5898 5895 5892 5889 5886 5883 5880 5877 5874 5872 5870 5868 5866 5864 5863 5862 5861 5861 5860 5860 5860 5861 5862 5863 5864 5866 5867 5869 5871 5873 5875 5877 5878 5880 5882 5884 5885 5887 5888
5921 5919 5917 5914 5911 5908 5905 5902 5899 5895 5892 5888 5885 5881 5878 5875 5872 5868 5865 5863 5860 5858 5856 5854 5852 5851 5851 5850 5850 5850 5849 5850 5851 5853 5855 5856 5858 5860 5862 5865 5867 5869 5871 5873 5875 5877 5879 5881 5883
5918 5916 5913 5910 5907 5903 5900 5896 5893 5889 5886 5882 5878 5874 5870 5866 5863 5860 5856 5854 5851 5848 5846 5843 5842 5840 5840 5839 5839 5839 5839 5839 5840 5842 5844 5846 5848 5851 5853 5856 5859 5861 5864 5866 5868 5870 5873 5875 5877
5916 5913 5910 5907 5903 5899 5895 5891 5888 5883 5879 5875 5871 5866 5862 5858 5855 5851 5848 5844 5841 5838 5835 5833 5831 5830 5829 5828 5828 5827 5827 5827 5828 5830 5833 5835 5838 5840 5844 5847 5849 5852 5855 5858 5860 5862 5865 5867 5870
5912 5910 5906 5903 5899 5895 5891 5887 5882 5877 5872 5868 5863 5859 5855 5851 5847 5843 5839 5835 5832 5829 5826 5823 5821 5820 5819 5818 5817 5816 5816 5816 5816 5818 5821 5824 5827 5829 5833 5837 5840 5843 5846 5849 5852 5854 5857 5860 5863
5909 5907 5903 5900 5896 5891 5887 5881 5877 5871 5866 5861 5856 5852 5847 5843 5839 5835 5831 5828 5824 5821 5817 5814 5812 5810 5809 5807 5806 5805 5805 5805 5806 5807 5809 5812 5816 5819 5823 5827 5831 5834 5837 5840 5843 5847 5850 5853 5856
5907 5904 5900 5896 5892 5887 5882 5878 5872 5866 5860 5856 5850 5845 5841 5837 5832 5828 5824 5821 5817 5813 5810 5807 5804 5802 5800 5798 5796 5795 5795 5795 5795 5797 5799 5802 5805 5809 5813 5817 5821 5825 5828 5832 5835 5839 5843 5846 5849
5904 5901 5897 5893 5889 5884 5879 5874 5868 5862 5856 5851 5846 5841 5836 5832 5827 5822 5818 5814 5810 5806 5803 5800 5797 5795 5792 5790 5788 5787 5786 5785 5786 5787 5789 5792 5795 5799 5803 5807 5812 5815 5819 5824 5827 5832 5835 5838 5842
5902 5899 5895 5890 5885 5881 5875 5870 5865 5858 5853 5847 5842 5837 5832 5828 5823 5818 5813 5809 5805 5801 5798 5795 5792 5789 5786 5784 5782 5780 5778 5778 5777 5778 5780 5783 5786 5790 5794 5798 5802 5806 5811 5815 5819 5823 5827 5830 5834
5900 5897 5894 5889 5884 5878 5872 5867 5862 5856 5850 5845 5840 5835 5830 5825 5820 5815 5811 5806 5802 5798 5794 5791 5787 5784 5781 5779 5776 5774 5772 5771 5771 5771 5773 5776 5779 5782 5785 5790 5794 5798 5802 5806 5810 5814 5818 5822 5826
5898 5895 5891 5887 5882 5876 5871 5865 5860 5854 5848 5843 5838 5833 5828 5824 5819 5814 5809 5804 5800 5795 5791 5788 5784 5781 5778 5775 5773 5770 5768 5767 5766 5767 5768 5769 5772 5775 5778 5782 5786 5790 5794 5798 5802 5806 5810 5813 5817
5897 5893 5889 5885 5880 5875 5869 5864 5859 5853 5848 5842 5837 5833 5828 5823 5818 5813 5808 5803 5799 5794 5790 5786 5783 5779 5776 5773 5771 5768 5767 5765 5764 5764 5764 5765 5767 5770 5772 5775 5779 5783 5787 5791 5794 5798 5802 5806 5810
5896 5892 5888 5884 5879 5874 5869 5866 5859 5853 5848 5843 5838 5833 5828 5823 5818 5813 5808 5803 5798 5794 5790 5785 5782 5779 5775 5773 5770 5768 5766 5764 5763 5762 5762 5763 5764 5766 5768 5770 5773 5776 5780 5784 5788 5791 5795 5799 5802
5894 5891 5887 5884 5879 5874 5869 5868 5859 5854 5849 5844 5839 5834 5829 5824 5819 5814 5809 5804 5799 5794 5790 5786 5782 5779 5776 5773 5770 5768 5766 5764 5762 5761 5761 5761 5761 5762 5763 5766 5768 5771 5774 5778 5781 5784 5787 5791 5795